Theta_e
287 288 289 289 288 287 287 286 286 285 286 285 283 284 286 286 282 280 285 287 285 287 290 291 292 293 293 293 294 295 295 294 293 290 288 289 289 289 289 290 289 288 287 286 286 286 285 285 284 284 284 283 283 283 283 283 283 282 282 281 280 280 279 279 279 278 278 277 277 277 276 276 275 275 275 275 275 275 274 273 273 272 272 272 271 271 271
286 287 287 288 287 287 287 286 286 287 286 285 285 285 286 286 284 286 286 286 286 289 290 292 293 294 294 295 295 295 293 293 293 293 290 290 289 289 289 290 290 289 289 289 288 287 286 285 284 284 284 283 283 283 283 283 283 282 281 281 280 279 279 279 278 278 277 277 277 276 276 275 275 275 275 275 274 273 273 272 271 271 271 271 270 270 270
283 286 287 287 287 286 284 286 286 286 286 286 286 286 285 286 285 286 286 285 285 290 293 293 294 294 295 294 293 293 293 293 293 293 290 289 289 289 288 289 290 290 291 290 289 287 286 285 285 285 285 284 284 283 283 282 282 282 281 280 280 279 279 278 278 277 277 276 276 276 275 275 274 274 274 273 272 271 270 270 269 270 270 269 269 269 269
280 285 284 285 286 285 284 284 285 285 284 283 285 284 286 285 284 285 285 283 284 290 293 293 293 293 292 292 292 293 293 293 293 292 292 289 291 293 293 291 290 290 290 290 290 289 288 287 286 285 285 284 283 283 283 282 282 281 280 280 279 279 278 278 277 277 276 276 275 275 274 274 273 272 271 271 270 269 269 268 269 269 268 268 269 269 269
279 284 285 283 284 282 279 281 284 286 286 287 287 288 288 288 288 284 282 283 289 291 292 291 291 292 292 292 292 292 293 293 293 293 293 292 292 293 293 292 291 291 291 290 290 290 290 289 287 286 286 284 283 283 283 282 281 280 280 279 279 278 278 277 277 276 276 275 274 274 274 273 272 270 270 270 269 268 268 268 268 267 268 268 268 269 269
280 284 283 284 280 273 275 287 290 288 286 286 285 285 287 289 289 287 289 290 292 292 292 291 291 292 292 293 294 295 294 294 294 294 292 292 293 292 291 291 291 290 290 290 290 289 290 290 290 289 287 286 285 284 283 281 280 280 279 279 278 278 277 277 276 276 275 274 273 273 272 271 270 269 268 268 268 268 268 268 267 267 268 268 268 269 269
280 285 284 279 273 275 286 291 291 291 290 289 288 288 289 290 291 290 289 290 291 292 293 293 293 294 294 295 294 294 293 294 293 292 293 294 293 293 294 292 291 291 291 291 290 289 288 289 288 285 284 284 282 282 281 280 280 279 279 278 277 277 276 276 276 275 275 274 272 271 270 269 268 267 267 267 267 267 267 267 267 267 267 267 268 268 269
284 281 280 274 274 285 287 289 291 292 291 290 288 286 288 290 290 290 289 290 291 292 293 293 294 294 294 295 295 295 295 295 294 293 294 295 295 294 295 293 292 292 290 291 291 291 288 286 285 285 285 283 283 282 280 280 279 278 278 277 277 277 276 276 275 275 274 273 270 269 268 267 267 267 267 267 267 267 267 267 268 268 268 268 268 268 268
279 279 280 279 286 284 284 286 286 288 285 285 285 281 284 290 291 291 290 291 292 292 293 293 293 294 294 292 293 295 295 295 295 295 294 295 295 295 295 294 293 293 290 290 290 287 284 285 284 285 284 283 282 280 279 279 278 278 277 277 277 276 276 275 275 274 274 271 269 268 267 267 267 266 266 266 267 267 267 267 267 267 267 268 268 267 267
286 280 278 279 278 275 281 288 289 293 292 292 291 287 284 291 292 293 291 290 291 292 292 292 292 293 290 288 290 294 295 296 295 295 295 295 294 294 294 294 293 291 289 289 287 287 285 284 285 284 283 282 281 279 279 278 278 277 277 277 277 276 276 275 274 273 273 270 269 268 267 266 266 267 267 267 266 267 267 267 267 267 267 267 267 267 267
284 281 278 277 276 279 287 288 292 293 294 293 291 286 281 289 292 293 293 292 292 292 291 292 292 290 286 287 290 294 295 295 295 293 292 292 292 293 294 294 294 290 289 288 286 284 284 284 283 283 282 281 280 279 278 277 277 277 276 277 276 276 275 274 273 272 271 270 269 268 267 267 267 266 266 266 267 267 267 267 267 267 267 266 266 267 267
282 281 279 277 282 282 287 290 291 294 295 294 287 278 278 290 292 294 294 292 292 292 292 292 291 288 286 288 291 294 294 294 293 292 291 290 290 290 291 291 291 290 287 285 283 284 284 284 283 282 281 281 280 278 277 277 276 276 277 277 276 275 274 273 272 271 270 269 268 267 267 267 267 267 267 266 266 266 266 266 266 266 266 266 265 266 266
282 282 279 282 283 288 290 291 292 292 293 289 280 276 285 291 292 293 293 292 293 293 292 291 289 290 291 292 293 293 291 289 290 288 287 289 290 290 290 290 288 287 286 288 287 286 286 283 282 281 281 280 279 278 277 276 276 277 277 276 275 274 273 272 271 270 269 269 268 267 267 266 267 266 266 266 265 265 265 265 265 266 266 265 265 265 265
280 281 279 279 284 289 293 293 294 291 285 279 279 288 292 291 289 290 289 288 289 289 288 289 289 290 291 290 290 290 290 289 289 290 291 288 287 286 286 287 287 286 284 285 284 283 283 282 281 281 280 280 279 277 276 276 277 276 276 275 274 272 271 270 269 269 268 268 268 266 266 266 265 265 266 266 265 265 265 265 265 264 264 264 264 264 265
283 282 279 278 275 284 286 288 289 289 284 284 287 288 289 290 289 288 288 289 288 289 288 289 289 290 290 290 290 290 290 290 290 290 290 289 288 287 287 285 285 285 283 284 284 284 282 281 281 281 280 279 278 277 276 276 276 275 274 273 272 271 270 269 268 267 267 266 266 265 265 265 265 265 265 264 264 264 264 264 264 263 263 263 264 265 266
276 276 277 277 281 284 288 285 281 283 284 285 287 289 287 291 290 288 288 289 289 289 289 288 289 289 289 290 290 290 289 289 289 290 290 289 288 287 286 285 284 284 284 283 283 282 279 279 279 280 280 279 278 276 276 275 274 273 272 272 270 269 269 269 267 266 265 264 264 264 264 265 264 264 263 263 263 263 264 263 263 262 263 264 265 265 265
278 275 280 283 285 287 287 287 285 285 285 285 286 290 290 289 289 288 288 288 289 289 289 289 289 288 289 289 289 289 288 289 288 288 288 287 286 284 284 285 284 284 283 282 281 279 277 276 276 277 278 279 277 276 276 274 274 272 271 270 269 268 268 267 266 265 264 264 263 264 264 264 263 262 262 262 262 263 263 263 263 263 264 265 264 264 265
284 284 283 284 285 284 282 284 285 283 283 285 289 288 288 288 289 288 288 288 289 289 289 288 288 288 288 288 289 289 289 289 289 288 288 288 284 283 282 282 280 280 279 279 279 278 275 275 276 277 277 278 277 277 275 274 273 272 270 269 268 267 266 266 264 263 263 263 263 263 264 264 264 263 262 262 263 262 263 264 264 264 264 264 264 265 265
276 270 280 279 280 281 282 282 284 285 285 288 289 288 288 288 288 289 288 289 289 289 288 287 287 288 289 288 289 289 288 288 289 289 288 288 287 286 285 283 281 279 277 279 279 279 280 276 276 276 277 277 278 275 273 273 273 271 269 269 268 266 265 264 263 262 262 262 262 263 263 264 264 263 263 264 263 263 263 264 264 264 264 264 264 265 264
273 273 278 279 281 281 282 282 282 283 285 286 287 286 286 287 287 287 287 287 287 288 287 288 288 288 289 289 288 288 288 289 289 289 289 288 288 287 285 283 280 279 279 280 280 279 279 278 276 276 276 276 276 274 273 273 271 270 269 268 267 265 263 262 262 262 262 262 262 262 263 263 263 263 264 265 264 263 264 264 264 264 264 264 265 265 265
275 279 279 280 281 282 282 283 283 284 284 283 283 284 285 285 284 285 285 286 285 286 286 288 288 287 287 288 288 288 289 289 289 289 289 289 289 289 287 282 280 281 281 281 281 280 281 280 277 275 276 276 274 273 273 271 270 269 268 267 265 264 263 262 262 262 262 262 262 262 263 263 264 264 264 265 265 265 266 266 265 265 264 265 266 266 266
270 272 276 279 273 272 277 279 282 282 282 282 280 280 280 281 281 282 282 283 285 285 286 286 286 285 286 287 287 287 288 288 289 289 289 289 289 289 289 287 284 282 282 282 282 281 282 280 276 275 275 275 273 272 271 271 270 269 267 266 264 263 262 262 262 262 261 261 262 262 263 263 263 263 266 268 267 265 265 269 270 270 269 267 267 267 266
270 275 277 277 277 276 278 279 279 279 281 280 278 278 278 279 280 281 282 281 280 281 282 283 283 284 284 285 285 285 285 286 287 287 287 288 288 288 289 288 285 283 282 281 281 281 281 278 276 276 275 275 271 270 270 270 270 269 267 265 264 263 262 262 263 262 262 261 262 262 263 263 263 263 264 267 270 270 269 270 271 272 271 271 272 271 268
276 276 272 272 273 273 275 277 277 278 279 278 276 277 278 279 279 280 279 279 278 279 280 281 282 282 283 283 284 283 284 285 285 286 286 286 287 287 288 288 287 286 284 282 280 280 281 278 276 275 273 273 271 270 269 269 269 268 267 266 264 263 262 263 263 262 262 262 262 262 262 263 262 263 263 264 266 270 271 272 272 272 272 272 272 272 272
273 272 271 272 272 273 275 276 276 277 277 276 275 276 277 277 277 277 277 277 278 278 278 279 280 281 281 282 283 283 283 284 285 285 285 286 286 287 287 287 287 286 285 285 284 282 281 279 276 273 272 272 270 269 269 269 269 268 267 266 264 263 263 263 262 262 262 262 262 262 262 262 262 263 263 263 263 265 268 272 272 272 272 272 272 271 272
271 270 270 271 273 274 275 273 274 274 273 273 273 274 275 276 275 275 274 274 274 275 275 276 277 279 280 279 280 281 282 282 284 285 285 285 286 286 287 287 287 287 286 285 285 283 282 279 277 274 273 272 270 269 269 268 268 268 267 266 265 264 263 263 263 262 262 262 262 262 263 263 263 263 263 264 264 265 265 265 268 270 271 271 271 271 271
269 269 268 269 271 271 271 269 269 271 271 272 272 272 272 272 273 272 272 272 272 273 274 275 275 275 276 276 277 277 277 279 280 280 282 283 284 285 287 287 287 287 286 285 284 282 280 278 275 274 274 273 271 270 269 268 268 267 267 266 265 264 263 263 263 262 262 263 262 263 263 263 263 263 263 264 264 264 264 263 264 263 262 264 268 270 267
267 267 267 265 265 266 267 268 269 269 271 271 270 269 270 270 269 267 267 268 269 271 271 271 271 271 270 271 272 272 273 273 273 275 276 277 279 282 283 284 285 285 284 283 282 281 279 276 274 273 273 272 269 268 268 268 268 267 267 266 265 264 263 263 263 263 263 263 263 263 263 263 264 264 263 263 263 263 263 263 263 260 259 259 259 266 269
266 264 265 265 265 265 266 267 268 268 267 268 268 268 267 265 264 264 265 266 267 267 266 267 268 268 268 269 269 269 270 271 272 273 274 275 277 277 279 280 282 283 284 282 281 280 274 271 271 271 271 268 267 267 267 268 268 267 267 266 265 264 264 264 264 263 263 263 263 264 265 263 263 262 262 262 262 261 261 261 260 259 259 258 258 260 262
264 264 263 262 263 264 265 265 264 264 265 265 265 264 264 263 262 263 264 264 264 263 263 264 264 264 265 265 266 268 268 269 270 272 273 274 275 276 276 278 279 280 280 278 277 275 271 271 271 271 270 266 266 266 267 268 268 268 267 267 265 263 263 264 264 264 263 263 263 264 262 262 262 261 260 260 260 259 259 258 259 258 257 258 260 257 256
263 262 261 262 262 264 264 262 263 263 264 264 263 262 262 262 261 261 261 261 262 261 262 261 261 262 262 264 265 266 267 268 269 269 271 272 273 275 276 278 277 277 279 281 281 277 274 273 272 271 270 266 266 266 267 267 268 267 267 266 265 265 265 265 265 263 263 262 262 261 260 260 260 260 259 258 258 258 258 258 258 257 257 257 256 255 255
260 259 260 263 263 261 261 262 262 262 262 262 261 260 260 260 259 259 259 259 260 260 260 260 259 260 261 262 263 264 265 265 266 267 269 270 272 274 275 276 277 277 279 280 282 279 275 274 272 271 268 266 266 266 267 267 268 266 266 264 264 264 264 265 264 263 262 261 260 260 260 260 259 259 258 257 257 257 257 257 256 256 256 255 255 254 255
257 257 260 260 259 259 259 260 260 260 260 260 260 260 260 260 260 260 260 260 259 259 259 259 260 260 261 261 262 263 264 265 266 267 268 269 272 274 276 278 279 280 280 281 282 281 277 274 274 269 266 266 266 266 267 267 267 266 265 265 264 264 263 265 263 262 260 260 260 260 259 259 259 258 258 257 257 257 257 256 256 255 255 255 254 254 255
258 258 258 259 258 258 257 258 260 259 260 260 260 259 259 259 259 258 258 259 258 258 258 259 259 259 260 261 262 263 264 264 264 266 268 270 272 274 276 277 277 277 279 278 275 273 273 274 269 264 265 265 265 266 267 267 266 265 265 264 263 263 263 262 261 260 260 259 259 258 258 258 258 258 257 256 256 256 256 255 255 255 254 253 253 253 257
261 260 260 259 259 259 260 259 259 259 258 257 257 257 258 258 258 258 258 258 258 258 259 259 259 260 260 261 262 263 263 263 264 265 267 270 272 274 275 275 275 275 274 272 269 269 268 266 264 264 264 264 265 266 266 266 265 265 264 264 263 262 262 260 260 260 259 259 258 258 258 257 257 256 256 256 256 255 255 255 254 254 253 253 252 252 254
258 257 257 257 258 258 259 258 258 257 257 257 257 257 257 257 257 257 257 257 258 259 258 259 259 260 261 261 261 261 261 262 264 266 267 269 270 272 271 270 270 271 270 267 263 263 263 263 262 262 264 264 265 265 265 265 265 264 263 263 262 261 260 260 260 259 258 258 258 257 257 256 255 255 255 255 255 255 254 254 254 253 253 253 252 251 249
257 257 257 257 257 257 256 256 256 256 256 256 256 256 256 256 257 257 258 258 258 258 258 258 258 259 260 261 261 262 262 263 265 266 267 268 268 268 268 268 269 268 266 265 261 261 262 262 261 261 263 264 264 264 264 262 264 264 263 262 261 260 259 259 258 258 257 257 257 256 254 254 254 254 254 254 254 254 254 253 253 252 252 252 251 250 249
256 256 256 256 256 255 255 256 256 256 256 256 256 257 257 256 256 257 257 257 257 258 258 258 258 260 260 261 261 261 263 265 265 265 266 265 265 265 266 267 266 264 264 264 260 260 261 261 260 262 263 263 264 264 263 262 262 263 262 261 260 259 259 258 257 257 256 255 255 254 254 254 253 253 253 253 253 253 253 253 252 252 251 251 250 249 248
255 256 256 255 255 255 255 255 256 256 256 255 255 256 256 257 257 257 256 257 257 258 258 258 260 260 259 259 260 262 262 263 263 263 263 263 264 262 258 255 257 260 261 260 260 260 260 261 262 262 262 263 263 263 261 260 261 262 261 260 260 259 258 258 257 256 255 254 254 254 254 253 253 253 253 253 253 252 252 252 252 251 251 250 249 248 247
254 254 254 255 254 255 255 255 255 255 256 256 255 255 256 256 256 256 257 257 257 259 258 259 259 258 259 259 260 260 261 261 260 259 259 261 259 258 258 257 257 259 260 259 260 260 260 260 262 262 262 262 262 261 260 260 260 261 261 261 260 258 258 257 255 254 254 254 254 253 253 253 253 252 252 252 252 251 251 251 251 250 250 249 247 246 246
254 254 254 254 254 255 254 254 254 255 255 255 256 256 257 257 257 257 256 257 257 258 258 258 258 259 259 259 259 259 260 258 256 255 256 259 259 256 255 254 256 258 259 259 259 260 260 261 262 261 261 261 260 259 260 259 260 260 260 259 258 257 256 255 255 254 254 254 254 254 253 253 252 252 251 251 251 251 250 251 251 250 249 249 247 246 245
253 254 254 254 254 254 254 254 255 255 255 256 256 257 257 257 257 256 257 257 257 257 257 258 259 259 259 259 259 260 257 256 256 255 254 254 254 255 253 254 257 257 258 258 259 260 260 260 260 260 260 260 259 258 258 259 259 259 258 257 256 255 255 255 254 254 255 254 254 254 253 253 252 252 251 251 251 251 252 252 252 251 251 249 247 246 245
253 253 253 253 253 253 254 254 254 254 255 255 256 256 257 257 257 257 257 257 257 257 258 258 259 259 259 259 259 258 257 257 256 255 254 255 255 255 255 255 256 257 258 259 259 259 259 259 259 259 258 258 258 257 258 259 258 257 256 256 256 255 255 255 254 254 254 254 253 253 253 253 252 252 251 252 252 252 252 252 252 251 251 250 250 245 245
253 253 253 253 253 253 254 254 255 255 255 255 257 257 257 257 258 257 257 256 256 257 257 257 257 257 257 256 256 255 254 254 255 255 254 253 254 255 256 256 257 257 257 258 258 258 258 258 258 257 256 256 256 257 258 258 257 257 256 256 255 255 255 254 254 254 254 253 253 253 253 252 252 252 252 252 252 252 251 251 250 250 250 251 248 247 246
253 253 252 252 253 254 254 255 255 255 256 256 257 257 257 257 257 257 257 256 256 256 257 256 256 257 257 256 254 253 253 253 253 254 253 253 252 252 256 257 257 257 257 257 257 257 256 256 256 256 256 256 257 257 258 257 257 257 256 256 256 255 255 255 254 254 253 253 254 254 253 253 253 253 253 253 252 251 250 250 250 250 249 248 248 246 246
252 253 253 254 254 254 255 256 256 257 256 256 256 257 257 257 257 257 257 257 256 256 256 256 256 255 255 256 256 255 254 253 254 254 254 253 253 253 256 256 256 256 256 256 255 255 255 255 256 256 256 256 256 257 257 257 257 257 256 256 255 254 254 254 254 254 253 253 253 253 253 253 253 253 253 252 251 250 249 249 249 248 248 247 246 245 244
252 253 253 254 254 255 256 256 256 256 256 255 254 255 256 257 257 257 257 257 257 257 256 256 255 255 255 255 254 255 254 252 253 254 255 255 256 256 255 255 255 255 255 254 254 255 255 256 256 256 256 256 256 257 257 257 256 256 255 255 255 254 254 254 253 253 253 252 252 251 251 251 251 251 249 249 249 248 248 247 247 247 246 246 245 246 245
252 252 253 254 255 255 256 255 255 254 254 254 254 255 256 256 257 257 257 257 257 257 256 256 255 254 254 254 255 255 255 254 251 252 255 255 255 255 254 254 254 255 254 254 254 255 255 255 256 256 256 256 257 256 256 256 255 255 254 254 254 254 253 253 253 252 252 251 251 251 250 250 249 249 248 248 248 247 247 247 246 246 245 244 244 244 243
253 253 254 255 255 255 255 254 254 254 254 255 255 255 256 256 257 257 257 257 257 257 256 255 254 254 254 254 254 254 255 255 254 252 254 255 254 254 254 254 254 255 254 254 254 255 255 255 255 255 255 255 256 256 255 255 255 254 254 254 253 253 253 252 252 252 251 251 251 250 250 249 249 248 248 247 247 246 245 245 245 244 244 244 243 244 244
253 254 254 254 254 254 254 254 253 254 255 255 255 255 256 256 255 256 256 256 256 256 255 254 254 254 254 254 254 254 255 255 255 255 254 254 254 254 254 254 254 254 254 254 254 254 254 255 255 255 255 255 255 255 255 255 254 254 254 253 253 252 251 251 250 250 250 250 250 249 249 249 248 247 246 246 245 245 244 244 243 245 247 246 244 243 243
253 254 254 254 255 255 255 255 255 255 255 255 255 255 255 255 255 255 255 255 255 255 254 253 254 254 254 254 254 254 255 255 255 255 254 254 254 254 254 254 254 254 254 254 254 254 254 255 255 255 254 254 254 254 254 254 253 252 252 251 251 251 251 251 251 251 250 250 249 249 248 247 247 246 246 245 245 244 244 244 244 243 243 242 242 243 243
254 254 254 255 255 255 255 255 256 255 255 255 255 255 255 255 254 254 254 255 254 254 253 252 252 253 254 254 254 254 255 255 255 254 254 254 254 254 254 254 254 254 253 253 254 254 254 253 253 253 253 253 253 252 252 252 252 251 251 251 251 251 250 250 250 249 249 249 249 249 248 247 246 246 245 244 244 244 244 243 244 243 243 243 243 243 242
Wind_Speed
21 22 23 20 21 21 22 22 20 21 17 13 16 18 21 21 18 20 12 18 23 25 23 24 26 25 18 17 21 22 21 17 16 11 7 9 10 9 9 11 11 10 10 9 11 13 13 12 12 13 12 11 11 10 10 11 12 13 11 12 12 12 13 14 14 13 11 10 10 10 10 10 11 10 10 10 10 9 8 7 6 6 6 5 5 3 3
21 23 25 26 28 25 24 22 20 17 15 14 15 20 22 21 19 18 22 25 30 23 21 24 24 18 19 22 23 22 18 19 20 19 10 12 10 11 12 12 12 11 12 12 14 14 13 13 14 13 12 13 14 15 14 13 13 11 12 14 15 14 14 13 11 11 11 10 11 11 11 11 11 11 10 10 10 9 8 8 7 6 6 4 4 4 4
20 22 22 22 25 24 26 22 18 13 12 17 23 22 17 16 18 21 26 26 24 19 26 24 18 17 19 22 26 26 22 20 21 22 12 11 12 11 11 12 13 12 14 15 14 12 13 13 15 15 15 14 13 12 11 12 13 13 13 13 13 13 13 11 11 11 12 12 12 12 11 11 10 11 11 10 10 10 9 8 7 7 6 6 5 5 5
15 14 20 23 23 22 22 20 18 17 21 25 22 19 18 18 23 25 24 19 18 23 23 15 16 18 21 26 28 25 21 21 21 21 16 10 12 16 16 13 12 13 13 14 14 14 14 15 15 13 12 11 11 14 13 13 12 11 12 12 13 13 12 11 13 14 13 12 13 12 12 12 12 11 11 11 10 11 10 9 6 5 6 6 6 6 5
16 12 17 20 20 19 18 19 21 29 31 26 20 21 23 22 22 22 19 23 22 21 13 16 17 21 25 25 24 24 24 22 22 21 18 12 13 17 17 12 11 12 12 13 14 14 13 13 13 14 15 12 13 14 14 12 11 13 13 13 13 12 12 13 14 14 13 14 14 13 13 13 12 12 12 12 12 10 8 6 6 6 6 7 6 6 6
9 12 18 14 15 18 19 17 30 30 30 29 31 27 28 32 26 20 19 23 21 20 16 19 23 26 26 24 23 19 15 17 21 19 12 12 15 11 10 10 9 9 10 9 10 11 12 14 15 15 14 16 15 11 11 11 14 13 14 13 13 13 12 13 14 14 14 14 14 13 13 13 13 14 14 11 7 7 7 7 7 7 6 6 5 6 6
10 10 11 13 23 21 9 15 19 24 28 29 31 31 28 26 25 28 28 28 25 22 22 23 26 27 28 27 24 17 12 17 16 14 15 16 15 13 13 11 8 8 9 10 9 9 9 11 9 7 9 9 8 10 12 13 13 14 12 13 12 13 13 13 13 13 14 14 14 13 13 13 13 14 14 10 10 9 9 9 9 8 8 8 7 6 5
6 6 8 14 17 1 5 13 14 14 19 21 21 27 26 29 29 29 27 25 25 24 25 26 26 27 28 26 22 19 20 20 16 16 18 19 18 16 14 10 9 10 9 11 11 12 8 6 8 10 12 11 12 12 12 14 13 13 13 13 13 13 14 14 15 15 16 15 14 14 13 13 13 11 9 9 11 9 8 7 7 6 6 7 7 7 6
16 11 14 22 10 11 3 5 8 12 16 15 20 25 27 27 25 22 24 27 26 25 26 27 26 24 21 19 18 17 21 21 19 18 17 16 17 17 15 12 12 11 9 9 11 7 6 9 10 11 10 12 12 12 12 12 14 13 14 14 15 16 15 15 16 16 16 16 15 14 15 13 8 9 11 9 8 8 9 8 8 8 8 7 7 6 6
14 16 14 15 12 16 13 10 12 20 23 23 22 18 24 7 14 18 23 25 27 29 27 24 21 19 18 17 16 19 22 20 18 17 15 13 14 14 15 14 10 8 7 7 6 9 9 10 11 9 11 13 13 13 12 12 14 14 15 16 16 16 17 16 17 16 17 18 18 17 16 14 12 11 9 8 9 10 10 10 9 8 7 5 5 5 7
11 18 15 14 15 13 5 16 15 19 18 18 17 14 22 6 13 15 23 28 27 25 21 21 18 15 14 15 16 16 17 16 15 13 9 11 12 13 14 14 13 9 8 8 7 6 7 8 7 9 12 12 12 12 12 13 13 15 16 16 16 18 17 16 16 16 16 17 18 19 14 12 10 12 11 10 9 7 6 6 7 7 6 6 6 5 6
13 17 18 18 8 12 9 12 14 19 19 15 6 18 12 13 18 20 24 26 23 19 17 17 16 13 15 15 15 14 16 14 10 7 9 10 10 11 12 10 9 7 5 5 5 7 10 12 9 11 11 12 13 13 13 12 14 16 18 18 14 12 13 14 14 14 15 16 15 16 17 14 8 9 9 9 9 9 7 6 6 6 5 5 5 4 4
21 21 19 12 10 5 6 13 13 13 12 8 15 23 10 4 10 13 14 14 14 16 17 12 12 9 12 13 12 11 8 7 8 7 6 9 9 10 10 10 5 6 8 11 12 14 11 9 10 10 11 12 12 11 12 13 17 18 13 11 13 14 13 14 14 15 13 15 17 14 16 16 9 9 8 10 10 9 10 8 7 7 7 5 4 4 4
15 16 18 18 13 6 6 10 12 5 2 9 15 9 15 17 15 14 13 13 15 16 15 13 11 14 17 16 14 15 15 14 12 13 13 9 6 5 3 0 4 5 5 6 5 3 4 10 10 11 12 13 11 11 12 17 18 8 11 12 13 14 15 14 14 13 14 12 14 14 13 15 12 9 8 8 9 9 7 9 10 7 6 5 4 4 5
13 14 14 14 14 3 17 22 8 1 7 4 13 13 13 10 9 11 12 11 11 11 12 12 13 14 15 14 13 12 12 12 12 13 14 15 11 8 6 5 2 2 3 4 7 6 4 7 8 10 12 13 11 11 15 14 8 10 11 12 13 14 14 15 14 14 14 16 13 12 14 14 16 12 9 9 9 8 11 8 9 8 7 6 6 5 4
6 6 8 2 6 8 9 11 7 10 10 12 17 14 15 10 7 8 9 9 10 10 11 11 13 12 13 16 15 13 11 10 10 11 11 11 11 9 5 5 5 3 3 3 5 7 4 1 2 5 11 12 10 12 14 7 10 10 12 13 14 15 15 16 16 14 14 14 12 13 14 12 10 11 10 7 7 6 6 7 7 7 6 6 6 5 4
4 5 8 12 14 8 6 4 10 11 16 16 17 9 7 9 10 4 5 8 9 7 7 10 11 14 13 14 14 13 11 10 8 8 8 7 7 6 5 2 0 1 2 3 1 1 1 2 3 5 5 10 10 14 9 11 13 14 14 15 16 16 16 16 16 15 14 14 14 14 13 15 13 8 10 9 8 6 7 8 7 7 7 7 6 5 5
7 11 10 16 9 12 21 23 18 19 20 18 5 4 8 6 6 5 8 7 9 9 6 8 11 11 11 14 15 15 14 13 10 8 7 6 5 4 4 2 1 4 4 4 3 5 4 5 6 7 10 10 14 14 8 11 12 14 16 16 16 17 15 15 16 18 19 14 14 14 14 6 7 10 12 10 8 9 7 7 8 8 8 7 6 6 5
11 14 7 11 13 21 23 24 24 18 9 6 5 6 6 8 9 9 7 10 12 12 9 8 9 11 11 11 13 13 12 13 13 11 10 8 6 6 7 6 5 4 5 6 8 9 10 9 10 10 12 12 10 7 13 12 13 14 15 16 16 15 16 15 15 10 12 11 10 9 9 8 6 6 8 8 9 9 8 9 8 8 7 7 7 7 6
12 15 16 19 17 19 20 17 15 16 13 7 4 8 8 9 8 8 12 11 12 10 11 11 10 12 12 13 13 14 14 13 14 13 12 11 10 8 7 7 6 6 7 9 10 10 12 11 11 12 12 13 10 9 11 13 14 15 16 17 17 17 17 15 15 14 8 14 14 10 8 9 9 8 6 8 9 10 11 11 10 9 8 9 8 8 7
17 18 17 15 16 14 12 9 12 6 9 15 13 8 8 9 11 11 10 9 11 13 13 13 12 13 14 14 14 15 15 15 14 14 13 12 11 10 8 6 8 10 10 11 12 13 14 11 11 12 13 11 9 12 13 14 16 17 16 14 13 15 15 14 14 14 14 9 8 10 10 10 7 8 9 11 9 7 4 5 7 9 9 8 7 6 6
13 11 13 14 16 15 17 15 8 11 16 12 13 13 12 11 12 13 14 13 10 10 12 15 15 15 14 15 13 12 13 13 14 15 14 13 12 11 9 7 8 11 11 12 12 14 14 10 11 13 14 11 9 11 13 14 16 18 16 15 15 16 15 15 15 15 13 10 9 10 12 13 11 8 5 7 6 7 7 11 13 12 10 7 7 6 6
14 14 19 11 9 12 9 14 14 12 10 11 14 16 15 15 12 11 13 16 17 16 14 13 15 16 16 18 17 18 16 17 16 15 15 15 14 14 12 9 8 10 12 12 12 13 12 8 11 13 12 11 11 13 15 16 18 18 18 16 15 15 15 15 17 16 9 10 9 15 15 17 14 12 10 8 11 13 11 13 14 15 13 13 14 12 8
21 11 5 5 6 8 11 11 10 14 12 11 13 13 15 15 16 17 15 13 16 17 17 15 12 13 16 17 16 17 18 18 18 18 16 16 15 16 14 13 13 12 12 11 13 16 14 11 13 12 12 12 14 14 15 17 17 18 20 19 18 17 17 15 16 16 11 11 12 11 9 10 15 14 13 11 9 12 15 15 14 13 13 12 11 11 12
9 3 4 3 8 14 10 7 8 8 9 12 13 14 12 16 16 16 16 16 13 14 15 18 19 14 12 15 14 16 16 18 18 19 19 18 18 17 16 16 16 14 14 13 13 13 12 11 11 11 12 13 13 14 16 17 18 19 20 19 19 17 16 16 16 15 14 9 11 10 16 16 13 13 10 12 15 13 11 15 14 12 13 12 12 11 11
4 8 10 11 9 9 8 13 11 11 16 17 16 15 18 16 17 17 17 16 15 15 15 15 17 17 14 14 15 16 17 18 20 20 17 17 16 16 16 16 16 14 13 13 12 12 12 13 13 12 14 14 15 17 17 18 20 21 21 20 21 19 18 19 18 16 12 12 11 9 13 15 15 14 12 13 13 14 14 10 10 10 12 13 13 12 11
7 8 11 15 14 15 12 8 9 15 15 14 15 17 17 15 14 14 15 16 15 15 14 14 14 14 14 14 14 14 15 17 18 18 16 18 17 17 15 14 14 14 14 13 13 13 15 13 12 13 15 16 15 15 16 18 18 17 17 16 14 16 24 21 17 17 13 11 13 13 15 14 15 14 14 12 12 13 12 13 14 12 8 7 7 10 6
6 7 7 2 8 12 15 14 13 14 16 16 16 17 15 14 15 17 19 19 18 16 17 16 14 15 17 16 14 15 15 17 16 17 18 18 17 18 19 20 19 17 14 13 14 13 12 10 11 13 14 9 11 13 15 17 17 17 16 15 15 15 15 17 13 8 12 16 17 16 14 13 13 13 13 13 12 11 9 9 10 10 7 5 3 4 11
6 4 2 3 9 13 14 13 13 13 15 15 14 14 12 14 16 16 15 15 14 16 16 17 15 14 13 15 14 16 16 15 16 16 15 16 16 16 18 21 22 21 18 16 14 12 8 6 8 11 11 10 14 15 17 18 18 17 16 16 15 15 14 12 14 13 13 14 13 11 11 11 11 11 10 10 9 10 9 9 9 8 8 6 4 4 6
7 7 6 7 10 11 11 12 14 17 14 13 13 16 14 13 16 17 17 17 15 17 18 18 16 16 12 14 12 15 16 19 20 18 18 16 16 14 15 16 19 19 18 16 14 9 7 9 12 14 12 11 13 15 17 18 17 18 18 18 15 17 19 16 15 15 13 12 11 12 11 10 9 9 11 10 10 10 10 9 9 9 8 7 6 6 7
12 11 9 11 9 6 10 14 14 15 16 14 14 15 16 12 13 15 16 17 17 17 18 17 16 19 17 14 15 13 15 16 17 19 20 20 17 17 15 14 15 15 16 16 14 12 11 13 12 13 8 12 14 16 18 17 15 15 13 12 11 18 20 20 16 14 14 13 12 12 11 11 10 10 10 10 10 9 9 8 9 8 7 7 7 6 5
13 16 11 3 5 10 13 9 10 12 15 16 17 18 15 15 18 20 20 19 19 20 21 22 21 18 18 17 16 17 16 16 15 19 19 19 18 17 16 16 17 19 19 20 17 10 10 10 12 10 9 14 15 16 16 16 14 15 15 14 15 16 17 24 15 15 13 13 13 12 11 12 10 9 9 9 9 10 9 9 9 8 8 8 7 6 5
9 15 17 16 19 20 20 17 11 15 18 19 19 15 13 12 12 14 15 16 19 22 20 20 20 19 17 19 19 18 17 16 18 17 19 18 18 17 15 14 15 17 17 16 15 13 11 14 13 7 12 13 14 16 16 16 15 14 13 14 14 14 15 16 15 14 11 12 12 12 11 10 10 10 10 9 8 8 8 8 8 8 7 7 7 6 5
6 7 11 10 7 13 17 23 21 17 17 17 16 14 15 15 13 15 16 16 18 20 19 18 19 19 17 18 19 19 16 17 18 17 15 15 17 17 15 14 17 19 18 14 10 8 6 7 5 11 14 14 14 15 15 14 13 13 15 15 15 15 14 13 14 13 13 11 10 11 10 9 10 9 9 8 9 8 8 8 7 7 7 6 5 5 2
9 11 11 12 11 12 14 17 19 19 18 21 24 21 16 14 15 17 18 19 19 19 17 18 18 18 18 19 17 18 18 18 19 19 20 19 16 17 16 16 17 17 16 12 7 6 1 4 9 12 14 15 16 16 15 16 15 14 15 15 16 15 15 14 14 14 14 14 13 12 11 11 9 7 8 9 9 8 8 7 8 7 7 7 5 4 2
9 12 11 11 10 11 13 14 15 17 19 20 21 21 22 19 19 20 20 20 18 19 20 20 21 21 18 17 18 18 19 18 18 18 19 18 17 14 15 19 20 19 15 10 3 1 5 8 14 17 14 14 15 15 16 16 16 16 16 16 15 14 14 14 12 11 10 12 11 10 9 10 10 9 8 8 8 8 8 8 7 6 7 6 6 5 3
7 12 12 13 12 12 14 14 14 16 18 19 20 21 24 22 19 18 18 18 17 18 19 19 19 20 19 18 17 17 17 17 16 17 18 17 16 19 20 20 17 14 9 10 4 3 4 6 13 18 13 12 13 14 16 21 16 15 15 15 15 15 15 14 14 14 13 11 11 11 11 10 9 8 7 8 8 7 7 7 6 6 6 6 5 5 5
10 10 13 13 14 14 15 14 14 16 19 24 22 18 20 21 20 18 19 18 17 17 18 18 20 20 19 18 19 20 19 16 17 18 20 21 20 21 20 12 8 4 7 6 3 4 4 10 16 12 10 11 12 13 17 21 20 16 14 14 14 14 14 14 13 12 12 13 11 11 11 10 10 9 7 7 7 7 6 7 7 7 6 5 5 4 5
13 10 10 12 13 14 15 15 13 14 15 21 23 21 17 18 21 20 19 18 17 17 18 18 17 19 19 20 18 17 18 20 20 22 23 24 17 8 3 3 6 6 3 5 6 5 9 11 9 9 9 10 12 13 17 20 20 14 14 13 14 14 15 15 15 13 13 13 11 12 10 9 9 9 8 7 7 7 6 7 7 6 6 5 5 5 4
13 12 13 14 14 14 14 15 14 14 14 13 16 21 19 18 18 18 19 18 17 17 18 17 18 18 18 18 19 18 18 19 15 14 15 9 4 4 3 8 10 8 6 6 6 6 9 12 10 8 9 10 12 12 12 16 14 11 12 13 13 13 13 13 17 19 16 14 12 11 10 9 9 8 8 7 7 7 6 7 7 6 6 5 5 4 4
14 15 15 14 15 14 15 16 17 15 14 15 15 17 17 18 18 18 18 18 17 15 16 16 17 16 16 17 18 18 14 8 11 12 12 8 6 5 5 6 8 7 5 4 5 7 8 7 8 9 9 10 10 13 13 15 12 11 11 13 15 15 15 16 14 17 15 13 10 11 10 10 10 9 8 8 7 7 6 6 6 5 5 6 5 4 3
16 15 15 16 15 15 16 16 16 16 15 14 16 17 18 17 17 17 17 15 15 15 16 16 17 17 16 15 15 10 6 6 8 8 8 7 6 4 3 4 6 5 7 8 9 8 6 7 7 8 10 10 11 17 17 13 11 12 14 16 15 17 16 14 14 12 10 9 10 9 8 8 9 9 8 7 7 6 6 6 5 5 4 5 4 4 4
15 17 17 16 15 16 16 16 17 17 17 16 15 15 15 16 16 15 13 13 14 14 14 13 13 14 13 12 10 6 5 6 6 7 6 7 9 8 5 3 4 5 7 6 6 6 7 7 8 8 11 12 12 17 17 13 13 11 9 11 12 14 13 13 11 10 10 9 8 9 9 9 9 9 8 8 7 6 6 6 6 5 5 4 4 4 3
17 16 15 16 17 16 16 16 16 15 16 15 14 15 16 15 13 12 12 13 13 13 12 11 11 10 9 9 7 6 6 7 6 5 4 5 9 11 9 5 5 7 10 7 7 7 8 8 8 13 17 19 19 16 13 13 14 15 12 11 10 11 9 10 9 10 9 9 9 9 8 7 8 7 8 8 7 7 6 6 5 6 5 4 3 4 3
16 15 16 16 17 17 15 14 15 17 17 16 16 15 13 12 11 10 12 12 11 11 10 9 9 9 7 5 5 5 4 5 5 4 4 4 6 7 7 6 8 7 10 11 9 9 9 9 14 18 16 18 19 18 12 10 9 12 10 10 10 10 10 10 10 9 8 9 8 8 5 7 7 7 7 7 6 7 7 6 6 5 6 5 5 4 4
16 15 15 17 17 16 15 16 16 15 16 15 14 12 10 10 10 10 9 10 9 8 8 9 9 9 10 8 3 3 6 6 6 6 5 4 4 3 5 8 9 10 16 15 10 10 11 17 19 17 18 19 18 15 10 10 9 9 10 10 10 9 9 8 8 8 8 8 8 7 7 7 7 6 6 6 6 7 6 6 5 5 4 5 5 4 3
15 15 15 16 17 17 17 16 15 16 15 13 11 11 10 10 10 9 8 9 8 8 7 8 8 9 9 9 8 5 4 4 5 7 6 7 8 9 11 14 15 17 14 11 9 10 10 12 15 19 19 18 16 10 8 9 9 9 9 10 9 9 8 8 8 8 8 7 6 7 6 6 7 7 6 7 7 6 6 6 6 5 4 5 3 3 3
16 16 17 19 21 18 17 15 13 11 11 11 11 11 11 11 11 9 8 8 9 7 7 7 8 9 10 9 8 7 4 2 7 6 6 7 8 9 10 10 11 17 18 16 17 15 19 19 19 19 18 15 11 9 9 9 9 9 9 9 8 8 8 6 6 6 7 8 8 8 8 7 6 6 6 6 6 5 5 5 6 5 4 5 5 5 4
17 20 20 16 14 15 14 12 11 10 9 10 11 10 11 12 11 7 7 10 11 7 6 8 10 9 9 9 9 6 6 5 4 6 6 8 8 8 8 10 16 16 12 10 11 11 15 19 18 18 17 13 9 8 8 7 8 9 8 8 7 7 7 6 6 5 6 7 6 7 7 7 6 6 6 5 5 5 5 5 5 4 5 4 3 4 3
15 13 11 10 10 9 9 9 8 8 9 10 9 9 9 10 8 8 8 9 8 8 7 7 7 8 8 7 8 8 8 10 10 9 8 10 12 10 10 11 12 14 14 11 12 11 14 18 17 15 12 10 9 9 9 9 8 8 8 7 8 6 7 8 7 8 7 6 7 7 7 6 6 6 5 6 5 5 5 5 3 4 4 3 3 2 3
11 10 10 10 8 9 10 9 9 9 8 8 8 8 9 8 8 8 7 9 8 8 7 7 7 8 7 7 7 8 9 10 10 10 8 10 11 13 13 10 12 11 11 11 10 8 7 7 7 9 11 9 9 9 8 8 7 8 8 7 8 10 8 6 5 7 6 6 6 6 6 6 6 6 5 5 5 5 5 5 4 3 3 3 3 4 5
12 10 9 8 8 8 8 7 7 6 7 7 7 7 7 7 7 7 7 11 8 7 7 7 8 8 8 7 8 8 8 9 8 9 10 11 10 9 10 12 10 10 9 9 9 9 8 8 10 11 11 9 7 8 9 10 9 8 8 7 6 5 6 5 5 6 6 6 6 6 6 5 5 6 5 5 5 5 4 4 4 3 3 3 4 4 4
Wind_Direction
238 244 248 248 254 254 252 247 247 249 238 217 223 231 238 236 238 255 254 254 258 256 252 260 263 268 279 283 280 276 278 283 275 254 242 247 241 241 230 231 228 225 225 221 220 221 219 211 205 206 203 200 195 198 194 189 190 191 177 177 182 184 187 190 190 180 168 166 163 162 161 155 151 148 141 136 133 132 134 139 137 140 135 138 149 147 150
235 236 239 242 246 249 253 252 247 244 243 238 223 234 237 237 247 252 253 250 251 258 263 254 258 271 281 279 277 277 277 273 273 273 248 253 241 231 230 230 232 227 227 228 226 221 217 208 209 205 201 199 197 195 195 189 188 183 169 183 183 186 189 189 177 167 165 162 162 159 156 155 150 143 140 137 135 133 128 128 128 133 137 137 144 163 179
239 235 241 244 247 246 253 255 256 251 260 258 248 248 253 260 257 251 251 251 257 257 256 260 272 274 274 275 271 268 269 270 270 273 261 236 245 233 218 229 234 230 229 231 230 223 219 211 210 206 204 201 197 194 190 187 186 182 177 178 184 184 186 176 168 162 163 164 158 161 155 148 146 142 139 136 131 129 129 133 135 134 139 153 162 175 187
242 228 234 237 240 244 248 253 260 260 248 247 246 247 242 242 249 251 253 255 253 250 253 268 266 265 261 261 264 269 268 265 267 266 268 238 247 259 254 232 227 232 229 227 227 223 219 215 212 208 204 197 187 195 189 188 182 167 173 178 179 182 176 168 167 167 166 159 159 158 152 152 148 141 134 135 133 123 128 131 137 135 148 165 169 179 190
240 221 229 235 240 245 247 241 245 246 246 246 253 249 248 243 246 250 249 247 245 256 261 262 260 256 253 254 257 261 262 263 264 265 263 251 242 248 253 245 229 229 229 225 222 223 220 216 211 209 200 188 192 194 187 180 155 168 176 177 176 175 174 171 171 167 161 160 160 158 158 151 146 142 141 131 121 131 137 131 133 147 162 165 177 183 193
239 219 236 232 239 226 226 207 222 227 239 242 244 244 240 241 233 241 239 252 255 255 254 252 254 256 255 250 250 248 255 267 267 264 261 255 251 244 239 238 232 225 226 231 226 218 215 214 211 207 188 191 196 179 164 155 166 171 171 177 175 175 171 172 169 165 163 162 161 158 152 147 145 132 127 123 119 115 124 135 148 155 162 167 174 184 191
245 233 234 237 228 238 224 210 217 229 239 246 249 251 248 253 253 253 251 250 251 252 250 250 252 255 259 261 259 259 254 251 258 271 267 257 252 253 257 252 239 232 226 227 235 234 226 219 208 168 178 181 149 151 160 164 168 167 174 170 173 172 172 171 166 165 164 163 159 153 151 149 145 136 130 129 139 147 151 156 157 161 164 168 178 175 186
261 232 213 244 247 146 228 196 209 215 239 246 259 263 254 251 247 248 254 254 252 250 251 251 250 251 254 261 267 268 261 259 257 255 258 263 266 264 259 252 248 243 229 227 227 231 218 179 177 175 178 164 159 167 160 164 166 169 169 171 174 172 174 172 170 168 165 162 157 154 150 136 128 137 136 142 144 144 141 138 142 145 156 163 173 179 181
241 233 228 242 272 277 140 156 203 194 221 221 224 247 242 231 241 245 252 254 254 251 248 247 250 255 260 263 266 262 262 261 254 250 255 260 263 268 272 265 255 248 227 219 226 208 171 178 169 182 165 160 157 152 162 169 166 168 168 175 179 177 176 173 172 169 167 160 157 156 141 134 135 135 142 138 136 139 140 148 153 161 165 167 171 172 179
213 244 244 251 234 239 228 213 201 213 221 226 231 237 261 187 237 232 242 248 248 246 247 249 252 254 261 262 261 255 257 259 265 262 257 253 255 258 263 263 255 244 228 215 206 179 178 183 186 166 159 158 157 162 167 164 167 172 175 184 181 178 178 174 171 169 166 161 159 159 157 152 149 148 138 135 145 153 150 152 158 159 157 151 167 176 187
217 235 240 232 243 245 159 213 201 215 221 228 239 251 259 153 220 223 234 240 241 243 244 247 248 250 249 251 252 258 259 262 257 256 253 245 236 239 241 244 249 234 216 194 181 168 166 185 186 163 157 155 155 168 169 171 173 175 187 185 182 181 176 170 168 166 166 165 163 162 157 149 142 141 145 146 143 137 134 130 140 147 153 160 172 185 192
229 241 241 242 224 253 201 201 207 218 220 231 246 258 265 151 215 226 235 241 246 249 245 244 243 238 252 251 252 245 250 255 264 246 235 240 241 237 240 242 231 218 169 118 150 173 189 198 166 160 156 159 168 170 176 169 177 189 193 189 176 165 161 163 163 164 166 165 163 160 158 130 136 130 131 129 138 139 140 137 141 142 148 159 172 181 184
223 222 242 251 259 246 181 208 207 211 216 213 235 243 270 220 221 250 259 270 270 271 277 274 271 244 248 264 277 290 292 294 286 270 237 228 227 229 231 235 194 161 177 183 188 196 198 166 160 160 157 158 177 177 170 175 194 199 182 160 161 161 158 159 163 164 164 166 161 160 156 147 130 131 139 141 138 141 143 144 141 145 154 158 162 181 195
228 232 238 243 258 279 294 254 230 195 69 250 247 314 357 358 356 358 4 356 359 6 1 354 341 335 337 342 351 349 344 333 323 319 312 300 286 285 317 319 164 171 169 196 207 204 170 164 161 161 161 173 176 173 175 197 202 157 154 159 154 155 158 159 159 160 162 162 158 151 149 144 135 134 140 134 136 132 133 145 146 137 141 155 173 196 206
242 236 246 241 230 20 13 340 310 273 245 2 344 327 334 342 5 12 355 353 351 6 350 344 338 339 341 344 346 346 348 353 348 345 344 337 316 300 308 318 335 114 159 201 220 215 166 163 165 171 167 174 181 178 196 203 150 150 151 152 152 152 153 156 159 158 159 158 156 154 151 153 146 137 137 130 130 134 143 131 136 143 154 167 179 192 193
333 310 266 233 67 320 348 28 323 348 320 329 331 343 323 325 352 360 350 346 347 351 344 342 334 333 335 335 338 339 339 344 343 341 340 339 339 330 335 359 11 359 322 336 351 3 11 3 184 174 177 182 184 189 206 142 145 142 150 151 152 154 158 159 156 158 156 154 151 154 141 147 137 118 129 122 127 136 121 129 137 144 157 171 179 173 182
315 288 309 300 318 322 292 318 295 296 309 318 302 291 320 332 334 322 343 328 331 335 340 333 333 327 329 322 320 324 318 320 323 323 319 326 331 337 332 305 103 136 210 255 273 204 146 190 207 193 195 193 191 205 190 149 155 157 156 156 157 162 162 161 159 149 150 153 153 156 147 136 125 123 126 135 132 140 140 147 147 150 163 166 166 170 178
278 271 264 290 309 316 317 308 305 310 313 312 258 267 319 330 300 304 315 319 324 323 328 325 317 309 307 312 313 311 314 311 306 300 302 309 320 315 303 299 159 187 194 221 214 216 203 190 201 206 208 198 201 210 150 160 159 157 156 158 163 164 161 159 155 137 135 138 139 141 139 126 124 145 146 151 144 146 148 150 157 158 160 156 161 172 178
318 285 316 283 304 305 302 300 304 312 300 278 327 347 340 327 326 318 319 310 309 301 298 294 285 291 295 296 294 297 300 299 297 298 295 294 292 289 285 253 186 185 190 210 221 217 224 205 202 211 208 211 209 144 168 161 159 157 161 163 163 163 162 158 153 147 144 147 144 142 139 131 122 121 136 137 137 142 149 154 158 161 157 157 167 173 173
265 278 292 300 301 282 278 286 302 310 330 350 351 317 313 314 311 309 303 307 302 304 304 301 298 296 297 296 298 299 297 296 298 297 293 291 295 275 245 237 199 205 201 213 222 219 227 220 202 211 213 213 191 162 160 162 156 157 163 170 169 169 164 159 160 162 141 144 143 143 145 142 139 143 140 148 148 156 163 164 160 164 164 168 173 170 167
294 291 287 279 286 301 303 301 315 340 339 320 322 322 314 314 319 318 315 310 310 313 309 306 304 302 300 299 298 296 296 295 294 290 289 286 279 279 265 227 201 206 214 219 222 220 227 217 198 208 215 209 179 167 165 161 161 163 169 168 165 161 161 158 161 163 159 154 143 140 137 148 142 147 152 162 156 148 149 150 162 157 162 164 161 159 152
290 297 316 335 320 311 314 319 350 353 339 352 344 339 337 335 327 324 322 320 320 322 323 322 319 312 307 307 309 304 302 298 299 300 300 296 292 285 272 254 224 228 229 226 227 227 233 214 196 208 211 198 178 169 162 166 164 167 164 162 164 169 170 169 162 161 161 153 144 133 145 146 140 128 117 133 135 140 144 161 161 158 155 158 155 153 152
288 302 308 333 319 306 302 323 342 344 338 343 341 330 326 322 320 324 331 330 326 319 312 309 310 308 310 310 313 308 306 301 299 295 295 295 293 290 285 276 249 234 235 229 232 238 237 202 202 208 204 191 177 173 170 171 171 170 163 166 172 172 172 178 173 165 144 144 148 140 132 136 141 139 136 147 151 146 150 160 161 161 160 163 164 163 160
284 307 26 336 307 290 307 319 335 328 330 338 327 322 319 322 325 325 322 318 311 308 306 302 294 294 296 297 299 297 296 294 295 294 292 289 286 287 285 280 271 257 244 233 228 233 232 209 207 204 196 192 184 179 174 174 173 170 172 170 174 179 180 174 166 165 154 142 147 144 133 137 137 139 139 139 142 157 160 165 169 171 163 162 160 164 163
303 357 315 318 301 296 299 320 324 314 326 332 327 323 323 322 322 325 317 314 311 309 307 307 308 303 298 297 299 297 296 296 295 292 289 287 285 281 280 278 272 261 252 242 237 234 233 219 209 200 196 198 184 178 177 176 176 176 179 179 178 174 173 168 167 163 161 151 155 147 149 149 148 145 139 146 144 144 163 172 169 166 158 155 153 153 154
59 357 337 319 307 300 325 331 333 347 337 332 324 321 320 323 322 321 315 310 306 306 301 294 296 304 312 308 302 302 301 298 298 298 295 290 288 284 278 272 270 265 254 250 247 239 235 223 208 198 202 198 185 184 179 179 182 183 182 183 178 171 170 170 166 169 166 163 150 150 147 151 150 151 153 153 153 152 145 152 168 161 148 149 150 145 147
64 13 358 344 328 322 332 344 309 321 314 310 311 311 310 312 317 313 306 302 298 297 293 295 300 305 308 306 306 304 304 305 307 302 300 299 295 292 289 286 280 273 266 258 251 243 236 225 208 203 209 203 187 180 180 180 182 183 183 176 175 179 173 167 169 166 162 157 148 146 155 151 151 150 151 151 154 158 159 162 161 149 147 121 125 138 121
69 30 27 334 296 301 298 306 304 296 300 309 313 310 311 319 318 311 308 310 313 317 314 312 318 320 315 313 318 314 313 308 302 301 302 301 302 305 306 305 302 297 283 266 255 250 240 220 211 211 218 192 163 176 177 177 180 180 178 174 171 170 174 175 165 147 154 161 157 151 153 152 151 150 146 149 154 154 152 154 146 140 134 135 127 140 133
11 24 345 282 275 280 284 287 294 299 298 302 305 301 313 322 311 306 302 304 309 311 306 311 317 313 309 309 313 306 299 294 292 293 292 292 296 298 303 303 300 297 290 278 265 255 238 210 209 214 215 176 172 173 174 176 179 178 177 176 174 161 158 171 167 154 154 151 157 151 144 141 139 137 136 138 135 139 145 147 144 138 135 135 122 119 87
327 325 323 291 276 273 286 305 305 305 304 303 312 311 317 323 312 309 310 311 314 310 307 311 313 307 308 300 294 296 301 301 300 296 291 285 282 281 282 285 289 287 283 277 269 255 220 212 211 213 209 171 169 170 171 178 182 182 179 176 175 166 155 159 155 156 148 147 139 132 130 131 131 131 135 138 140 143 143 144 144 141 140 146 143 141 133
314 308 303 290 271 278 305 295 296 299 302 309 312 309 311 318 309 304 305 311 311 307 308 309 305 305 304 299 298 295 292 290 290 291 290 288 286 282 277 280 284 286 283 279 268 246 228 224 218 221 188 161 168 171 172 178 176 171 165 162 153 160 156 155 153 152 146 140 136 132 132 131 131 134 137 138 138 136 139 141 140 139 138 135 135 136 142
310 310 307 268 318 309 299 292 293 295 307 313 315 314 322 327 319 315 313 313 309 308 309 307 305 305 304 302 299 297 296 292 286 284 283 284 284 282 280 275 270 268 270 272 273 253 231 230 228 218 154 169 170 170 172 173 168 167 168 159 156 159 153 148 144 146 143 139 135 137 140 138 134 129 130 136 141 141 141 141 142 142 141 141 139 149 166
322 327 329 337 337 328 319 312 313 308 310 310 305 304 303 303 299 296 297 300 301 303 303 298 297 297 297 298 296 295 292 289 282 275 274 274 275 278 278 276 271 270 268 263 260 251 225 222 227 168 155 161 165 170 172 171 167 162 157 155 153 149 150 149 138 137 130 132 136 139 140 138 138 138 141 137 134 134 135 137 137 138 140 140 139 156 174
280 271 278 295 291 298 304 305 309 309 302 297 292 296 301 302 301 297 297 298 293 293 295 295 296 294 292 293 292 289 291 297 298 296 290 287 287 290 293 294 292 290 286 284 292 285 257 232 154 136 154 157 160 164 168 162 156 154 153 150 144 145 145 140 136 132 132 129 127 124 124 128 133 136 136 136 136 136 139 138 137 137 132 130 135 151 252
285 282 285 285 287 280 282 285 291 298 301 302 303 303 298 295 298 298 298 298 296 295 294 293 291 292 289 288 289 294 298 292 289 290 291 290 289 287 286 289 294 293 282 275 276 280 272 128 139 147 150 156 159 164 161 157 152 150 149 146 145 143 141 139 142 144 141 140 137 138 138 137 132 129 129 130 132 133 132 132 134 136 134 132 129 117 37
300 293 289 284 279 278 279 280 282 284 288 288 289 293 297 299 300 297 299 298 298 296 294 294 293 290 285 287 292 295 295 292 288 284 288 290 292 297 300 295 289 284 274 269 351 25 133 152 157 152 154 155 160 157 153 149 147 147 146 144 143 138 137 138 133 125 123 127 128 126 125 122 121 126 128 124 125 128 129 128 133 131 132 131 135 126 72
278 283 289 291 290 287 284 281 281 284 284 285 287 293 293 294 293 293 294 295 295 295 295 293 291 288 287 289 287 285 283 281 282 289 292 296 301 300 294 289 280 268 254 251 230 188 162 145 152 145 143 151 152 150 146 144 145 143 141 142 141 141 140 138 138 137 136 130 125 123 123 123 123 121 122 124 126 125 125 127 124 124 119 128 124 127 115
293 289 290 290 292 291 285 281 282 282 283 283 282 281 286 293 296 297 294 294 293 293 290 286 283 284 287 290 288 283 280 283 289 293 297 299 297 291 287 286 289 277 246 261 121 137 129 140 138 136 141 146 148 144 143 142 138 139 140 140 141 138 135 132 129 126 124 117 123 125 129 128 129 126 125 121 123 126 129 126 127 128 129 124 128 127 132
298 292 283 286 285 283 284 285 283 280 280 282 287 288 286 289 292 295 293 293 291 290 288 286 287 288 291 289 285 288 293 297 299 300 296 291 291 297 352 355 303 318 332 92 125 118 134 139 136 132 135 136 132 131 135 135 137 137 137 138 138 138 137 138 135 130 126 122 122 121 118 126 124 127 126 127 126 124 124 126 128 127 129 137 141 147 143
299 302 299 300 295 294 293 292 290 285 281 278 285 292 298 295 293 292 292 292 292 292 290 290 291 291 289 290 295 297 300 308 323 330 326 323 21 360 356 16 5 355 52 89 98 121 130 129 127 126 127 126 124 127 130 131 129 130 138 137 135 131 130 124 117 109 119 123 122 123 122 124 124 124 124 124 125 125 124 124 123 125 129 138 140 137 143
302 303 304 300 297 299 297 298 296 291 290 290 288 287 290 292 294 294 293 294 296 295 292 291 289 288 291 293 294 292 305 346 350 338 347 344 350 10 1 344 352 357 6 59 106 118 119 119 120 124 116 118 118 124 124 121 122 134 134 131 130 129 126 127 126 118 118 127 129 130 131 127 124 123 126 125 126 124 126 121 125 135 148 147 144 145 162
303 302 298 299 299 300 299 295 293 295 293 292 292 293 292 291 292 291 292 296 301 300 294 291 291 294 294 294 293 302 345 338 354 351 356 17 354 350 17 7 3 15 65 92 104 101 88 88 89 104 112 117 121 126 124 121 121 124 119 114 105 110 112 116 120 118 113 116 119 120 120 125 126 127 126 125 127 130 127 129 128 139 142 137 139 159 166
305 305 304 303 300 300 298 297 296 296 298 299 297 296 296 295 291 289 293 302 301 300 301 300 303 302 302 309 316 335 336 341 351 357 4 23 24 13 29 38 24 50 67 74 71 72 74 78 88 89 109 113 119 120 115 113 118 109 92 106 117 109 91 106 112 112 112 107 95 115 124 127 128 130 131 131 131 132 133 138 143 143 135 138 146 153 171
304 304 301 301 300 299 296 295 296 299 300 301 302 300 298 294 293 298 308 307 307 314 317 321 321 323 334 342 351 1 357 351 349 3 5 19 39 31 28 43 57 53 52 57 63 68 69 67 75 93 99 108 112 108 108 113 109 75 97 113 112 109 100 105 107 112 115 120 123 124 126 127 128 130 132 132 132 129 131 129 127 128 127 132 137 159 179
304 302 301 299 297 297 298 299 302 305 302 300 299 298 299 302 306 309 309 307 315 327 328 329 330 335 337 351 0 8 2 2 351 342 7 23 42 35 17 38 47 58 57 65 64 63 64 74 88 91 97 101 106 107 104 97 84 90 99 106 105 107 106 110 111 111 111 112 110 116 114 120 126 125 129 125 130 132 134 132 131 131 131 134 148 169 192
301 299 298 299 298 298 300 302 302 300 299 300 299 299 304 308 311 311 308 312 318 322 327 333 341 346 342 340 349 27 24 24 15 17 31 30 59 51 39 50 51 58 67 67 69 71 77 81 84 87 92 97 100 102 96 92 85 92 100 100 100 101 100 104 103 106 106 111 111 113 115 114 116 117 115 125 124 122 121 118 118 122 136 148 163 172 196
300 301 300 297 297 299 303 303 302 302 303 306 309 314 319 319 319 319 318 317 320 324 332 346 349 349 349 345 343 346 5 15 37 27 36 52 59 58 53 55 62 69 73 73 72 78 85 82 84 87 91 92 93 90 73 87 89 92 92 95 95 97 96 95 99 101 99 94 101 102 100 103 106 108 107 105 110 115 124 127 133 141 142 141 151 167 189
303 302 301 300 301 305 306 304 306 307 307 312 317 315 318 321 319 322 321 325 326 334 353 358 359 359 358 356 354 357 344 27 79 49 26 51 56 64 68 73 74 79 79 81 80 76 77 81 85 87 86 84 81 80 80 83 87 87 89 92 92 94 98 94 93 94 100 107 107 94 102 107 103 102 107 113 116 120 129 134 143 144 149 158 185 197 206
304 299 297 300 306 306 309 313 312 309 312 320 320 323 325 322 315 320 335 345 341 348 7 10 6 9 8 8 15 12 23 27 59 89 61 61 63 53 51 59 70 80 81 76 75 74 76 80 79 78 76 75 75 74 77 79 83 86 84 86 82 82 88 76 82 83 93 100 106 110 110 112 117 118 118 112 117 122 131 136 142 148 164 176 192 206 212
300 299 309 316 311 311 319 314 309 312 322 322 323 327 329 330 335 350 359 356 354 5 10 15 13 13 15 19 27 37 44 55 60 60 60 65 67 62 61 64 72 74 75 78 77 75 73 71 69 69 71 77 75 77 80 78 73 75 84 84 87 81 88 94 96 98 104 107 108 108 111 112 115 113 113 118 124 133 139 145 147 156 161 170 191 222 233
302 308 312 304 304 312 310 307 310 320 320 322 327 331 338 344 346 353 357 355 352 10 19 17 26 22 22 28 35 42 51 58 64 62 60 63 68 71 72 70 72 71 67 63 62 51 49 43 59 70 71 67 74 75 72 70 69 75 81 72 81 79 92 100 106 105 102 107 109 108 109 110 111 115 122 127 132 137 142 145 155 171 184 202 217 227 235
301 304 293 307 317 309 307 312 319 329 324 329 332 340 343 347 349 357 359 5 1 11 27 25 28 28 28 29 40 49 55 60 64 64 66 70 70 71 67 67 69 55 45 49 54 50 57 63 69 72 76 76 71 80 80 80 82 87 85 88 93 87 93 102 102 100 100 101 103 104 104 108 117 118 122 132 141 146 153 165 177 186 196 206 218 229 236